Overview Statistics Trail Chart Weather Telemetry Raw packets
 

This is the latest recevied weather packets stored in our database for station/object SQ9SMC-13. If no packets are shown the sender has not sent any weather packets the latest 10 day(s).

<< 68 69 70 71 72 73 74 >>
Time Temp. Humidity Pressure Rain* Wind** Luminosity Snow
1777217403 11.11° C 32% 1023.8 hPa 0 mm - 189 W/m² -
1777217103 11.67° C 32% 1023.8 hPa 0 mm - 204 W/m² -
1777216804 11.67° C 32% 1023.8 hPa 0 mm - 219 W/m² -
1777216504 10.56° C 33% 1023.9 hPa 0 mm - 229 W/m² -
1777216204 10.56° C 35% 1023.7 hPa 0 mm - 57 W/m² -
1777215903 10.56° C 34% 1023.7 hPa 0 mm - 259 W/m² -
1777215603 11.11° C 34% 1023.7 hPa 0 mm - 179 W/m² -
1777215304 11.11° C 34% 1023.5 hPa 0 mm - 91 W/m² -
1777215002 11.11° C 34% 1023.5 hPa 0 mm - 72 W/m² -
1777214703 11.11° C 36% 1023.6 hPa 0 mm - 114 W/m² -
1777214403 11.67° C 35% 1023.4 hPa 0 mm - 68 W/m² -
1777214103 12.22° C 35% 1023.6 hPa 0 mm - 342 W/m² -
1777213804 12.78° C 35% 1023.3 hPa 0 mm - 376 W/m² -
1777213502 12.22° C 34% 1023.6 hPa 0 mm - 405 W/m² -
1777213204 11.67° C 34% 1023.5 hPa 0 mm - 390 W/m² -
1777212904 10.56° C 36% 1023.3 hPa 0 mm - 407 W/m² -
1777212602 11.67° C 35% 1023.4 hPa 0 mm - 78 W/m² -
1777212302 11.11° C 35% 1023.4 hPa 0 mm - 430 W/m² -
1777212004 11.67° C 34% 1023.3 hPa 0 mm - 248 W/m² -
1777211704 11.11° C 37% 1023.1 hPa 0 mm - 461 W/m² -
1777211404 11.67° C 35% 1023.4 hPa 0 mm - 196 W/m² -
1777211103 11.67° C 35% 1023.5 hPa 0 mm - 119 W/m² -
1777210802 11.67° C 34% 1023.1 hPa 0 mm - 95 W/m² -
1777210503 11.67° C 34% 1023.2 hPa 0 mm - 502 W/m² -
1777210202 11.67° C 35% 1023.1 hPa 0 mm - 514 W/m² -

* Rain latest hour (hover to see other rain measurements)
** Current wind speed in m/s (hover to see current wind gust speed)